Location: Killam
(52.7910°N, 111.8608°W)
Time: 10:42:45
(UTC+00:00)

FENGYUN 1C DEB - Pass Details

Date: 01 June 2024
Orbit: 795 x 992 km, 98.4° (Epoch: 16 June)

Event Time Altitude Azimuth Distance (km) Brightness Sun altitude
Rises 07:38:10 0° 8° (N) 3,329 ? -15.0°
Reaches altitude 10° 07:40:56 10° 354° (N) 2,410 ? -15.0°
Maximum altitude 07:44:55 22° 305° (NW) 1,729 ? -15.0°
Drops below altitude 10° 07:49:01 10° 256° (WSW) 2,471 ? -14.9°
Enters shadow 07:51:30 - 243° (WSW) 3,293 ? -14.9°
